SGDC

Last updated on Fri Sep 19 2025 00:02:50 GMT+0000 (Coordinated Universal Time)

1 42692U 17023B 25260.21787161 -.00000270 00000+0 00000+0 0 9992 2 42692 0.0208 84.2858 0003032 117.1387 158.5614 1.00271336 30675
UTC large
Height (km)
Speed (km/s)
/
Latitude / Longitude
Inclination (degrees)
Orbital Period (minutes)
Azimuth
Elevation
Range (km)
Doppler Factor

Next 0 passes for location: London (51.5072 / 0.1276)

Sorry there are no passes over London.